Weather History for Grand Island, NE

Change the Weather History Date:

Friday, June 28, 2013

  Actual Average Record
Temperature  
Mean Temperature 78 °F 75 °F  
Max Temperature 88 °F 87 °F 107 °F (1970)
Min Temperature 67 °F 63 °F 48 °F (2004)
Degree Days  
Heating Degree Days 0 0  
Month to date heating degree days 21 21  
Since 1 June heating degree days 21 21  
Since 1 July heating degree days 6133 6196  
Cooling Degree Days 13 10  
Month to date cooling degree days 246 191  
Year to date cooling degree days 341 256  
Since 1 June cooling degree days 246 191  
Growing Degree Days 28 (Base 50)    
Moisture  
Dew Point 59 °F    
Average Humidity 60    
Maximum Humidity 90    
Minimum Humidity 29    
Precipitation  
Precipitation 0.00 in 0.13 in 1.04 in (1967)
Month to date precipitation 1.63 4.05  
Year to date precipitation 15.00 14.00  
Snow  
Snow 0.00 in 0.00 in - ()
Month to date snowfall 0.0 0.0  
Since 1 June snowfall 0.0 0.0  
Since 1 July snowfall 35.2 29.0  
Snow Depth 0.00 in    
Sea Level Pressure  
Sea Level Pressure 30.01 in    
Wind  
Wind Speed 11 mph (NNW)    
Max Wind Speed 24 mph    
Max Gust Speed 31 mph    
Visibility 10 miles    
Events      
T = Trace of Precipitation, MM = Missing Value Source: NWS Daily Summary

Daily Weather History Graph

Daily Weather History Graph

Search for Another Location

Airport:

Trip Planner

Search our weather history database for the weather conditions in past years. The results will help you decide how hot, cold, wet, or windy it might be!

Date:

Astronomy

Jun. 28, 2013 Rise Set
Actual Time 6:03 AM CDT 9:09 PM CDT
Civil Twilight 5:30 AM CDT 9:42 PM CDT
Nautical Twilight 4:47 AM CDT 10:25 PM CDT
Astronomical Twilight 3:56 AM CDT 11:16 PM CDT
Moon 12:04 AM CDT (6/28) 12:15 PM CDT (6/28)
Length of Visible Light 16h 12m
Length of Day
15h 05m
Waning Gibbous, 66% of the Moon is Illuminated
Jun 28
Waning Gibbous
Jun 29
Last Quarter
Jul 8
New
Jul 15
First Quarter
Jul 22
Full

Hourly Weather History & Observations

Time (CDT) Temp. Heat Index Dew Point Humidity Pressure Visibility Wind Dir Wind Speed Gust Speed Precip Events Conditions
12:53 AM 72.0 °F - 66.9 °F 84% 30.01 in 10.0 mi West 4.6 mph - N/A   Clear
1:53 AM 70.0 °F - 66.9 °F 90% 30.01 in 10.0 mi Calm Calm - N/A   Clear
2:53 AM 70.0 °F - 66.9 °F 90% 30.00 in 10.0 mi West 6.9 mph - N/A   Clear
3:53 AM 70.0 °F - 66.9 °F 90% 30.00 in 10.0 mi West 6.9 mph - N/A   Clear
4:53 AM 70.0 °F - 66.0 °F 87% 30.01 in 10.0 mi West 5.8 mph - N/A   Scattered Clouds
5:53 AM 70.0 °F - 64.9 °F 84% 30.01 in 10.0 mi WNW 8.1 mph - N/A   Partly Cloudy
6:53 AM 70.0 °F - 64.9 °F 84% 30.03 in 10.0 mi NW 6.9 mph - N/A   Clear
7:53 AM 73.0 °F - 63.0 °F 71% 30.05 in 10.0 mi NNW 9.2 mph - N/A   Clear
8:53 AM 75.9 °F - 60.1 °F 58% 30.06 in 10.0 mi NNW 11.5 mph - N/A   Clear
9:53 AM 80.1 °F 80.4 °F 57.0 °F 45% 30.05 in 10.0 mi North 13.8 mph - N/A   Clear
10:53 AM 82.0 °F 81.6 °F 55.9 °F 41% 30.04 in 10.0 mi North 13.8 mph - N/A   Clear
11:53 AM 84.0 °F 82.6 °F 54.0 °F 35% 30.05 in 10.0 mi North 18.4 mph - N/A   Clear
12:53 PM 84.9 °F - 52.0 °F 32% 30.04 in 10.0 mi NNW 20.7 mph 27.6 mph N/A   Clear
1:53 PM 86.0 °F - 52.0 °F 31% 30.03 in 10.0 mi NNW 21.9 mph 26.5 mph N/A   Clear
2:53 PM 87.1 °F - 52.0 °F 30% 30.01 in 10.0 mi North 20.7 mph 27.6 mph N/A   Clear
3:53 PM 88.0 °F - 52.0 °F 29% 30.00 in 10.0 mi North 18.4 mph 26.5 mph N/A   Clear
4:53 PM 87.1 °F - 51.1 °F 29% 29.98 in 10.0 mi North 16.1 mph - N/A   Clear
5:53 PM 87.1 °F - 51.1 °F 29% 29.98 in 10.0 mi North 16.1 mph 24.2 mph N/A   Clear
6:53 PM 86.0 °F - 52.0 °F 31% 29.96 in 10.0 mi North 19.6 mph - N/A   Clear
7:53 PM 82.9 °F 82.0 °F 55.0 °F 38% 29.97 in 10.0 mi North 10.4 mph - N/A   Clear
8:53 PM 78.1 °F - 57.9 °F 50% 29.97 in 10.0 mi NNE 5.8 mph - N/A   Clear
9:53 PM 71.1 °F - 60.1 °F 68% 29.98 in 10.0 mi NW 4.6 mph - N/A   Clear
10:53 PM 69.1 °F - 57.9 °F 68% 29.99 in 10.0 mi NNW 4.6 mph - N/A   Clear
11:53 PM 69.1 °F - 57.9 °F 68% 29.99 in 10.0 mi NNW 5.8 mph - N/A   Clear